| time (UTC) | temp C | wind direction | speed KPH | gust KPH | rain 1hr cm | rain 24hr cm | rain mn cm | humidity % | barometer mb |
| 20260509032505 | 12 | 200 | 0.0 | 0.0 | 0.00 | 0.00 | 0.00 | 87 | 1007.1 |
| 20260509032005 | 12 | 200 | 0.0 | 0.0 | 0.00 | 0.00 | 0.00 | 87 | 1007.1 |
| 20260509031505 | 12 | 200 | 0.0 | 0.0 | 0.00 | 0.00 | 0.00 | 87 | 1007.2 |
| 20260509031005 | 12 | 200 | 0.0 | 1.6 | 0.00 | 0.00 | 0.00 | 87 | 1007.2 |
| 20260509030505 | 12 | 200 | 0.0 | 4.8 | 0.00 | 0.00 | 0.00 | 87 | 1007.3 |
| 20260509025505 | 12 | 200 | 0.0 | 0.0 | 0.00 | 0.00 | 0.00 | 86 | 1007.3 |
| 20260509025005 | 12 | 200 | 0.0 | 0.0 | 0.00 | 0.00 | 0.00 | 86 | 1007.3 |
| 20260509024505 | 12 | 200 | 0.0 | 1.6 | 0.00 | 0.00 | 0.00 | 86 | 1007.3 |
| 20260509024005 | 12 | 200 | 1.6 | 4.8 | 0.00 | 0.00 | 0.00 | 86 | 1007.3 |
| 20260509023505 | 12 | 202 | 0.0 | 4.8 | 0.00 | 0.00 | 0.00 | 86 | 1007.3 |
| 20260509023005 | 12 | 201 | 0.0 | 4.8 | 0.00 | 0.00 | 0.00 | 86 | 1007.3 |
| 20260509022505 | 12 | 201 | 0.0 | 3.2 | 0.00 | 0.05 | 0.00 | 85 | 1007.3 |
| 20260509022005 | 12 | 202 | 0.0 | 4.8 | 0.00 | 0.08 | 0.00 | 85 | 1007.4 |
| 20260509021505 | 12 | 202 | 0.0 | 8.0 | 0.00 | 0.08 | 0.00 | 85 | 1007.4 |
| 20260509021005 | 12 | 200 | 1.6 | 8.0 | 0.00 | 0.08 | 0.00 | 85 | 1007.4 |
| 20260509020505 | 12 | 202 | 3.2 | 9.7 | 0.00 | 0.08 | 0.00 | 85 | 1007.4 |
| 20260509020005 | 12 | 200 | 1.6 | 8.0 | 0.00 | 0.08 | 0.00 | 85 | 1007.4 |
| 20260509015504 | 12 | 179 | 3.2 | 8.0 | 0.00 | 0.08 | 0.00 | 84 | 1007.3 |
| 20260509015005 | 12 | 195 | 1.6 | 9.7 | 0.00 | 0.08 | 0.00 | 84 | 1007.3 |
| 20260509014504 | 12 | 222 | 3.2 | 9.7 | 0.00 | 0.08 | 0.00 | 84 | 1007.3 |
| 20260509014005 | 12 | 186 | 1.6 | 9.7 | 0.00 | 0.08 | 0.00 | 84 | 1007.3 |
| 20260509013504 | 13 | 191 | 3.2 | 9.7 | 0.00 | 0.08 | 0.00 | 84 | 1007.3 |
| 20260509011505 | 13 | 186 | 4.8 | 9.7 | 0.00 | 0.08 | 0.00 | 84 | 1006.8 |
| 20260509010505 | 13 | 219 | 3.2 | 12.9 | 0.00 | 0.08 | 0.00 | 83 | 1006.8 |
| 20260509010004 | 13 | 206 | 4.8 | 11.3 | 0.00 | 0.08 | 0.00 | 83 | 1006.8 |
| 20260509005004 | 13 | 223 | 3.2 | 9.7 | 0.00 | 0.08 | 0.00 | 83 | 1006.8 |
| 20260509004505 | 13 | 188 | 3.2 | 9.7 | 0.00 | 0.08 | 0.00 | 83 | 1006.7 |
| 20260509004004 | 13 | 209 | 4.8 | 11.3 | 0.00 | 0.08 | 0.00 | 83 | 1006.7 |
| 20260509003505 | 13 | 203 | 3.2 | 8.0 | 0.00 | 0.08 | 0.00 | 83 | 1006.7 |
| 20260509003004 | 13 | 199 | 4.8 | 11.3 | 0.00 | 0.08 | 0.00 | 83 | 1006.7 |
| 20260509002505 | 13 | 167 | 4.8 | 12.9 | 0.00 | 0.08 | 0.00 | 83 | 1006.7 |
| 20260509002005 | 13 | 211 | 1.6 | 11.3 | 0.00 | 0.08 | 0.00 | 82 | 1006.7 |
| 20260509001505 | 13 | 186 | 3.2 | 8.0 | 0.00 | 0.08 | 0.00 | 82 | 1006.7 |
| 20260509001004 | 13 | 242 | 4.8 | 9.7 | 0.00 | 0.08 | 0.00 | 82 | 1006.8 |
| 20260509000505 | 13 | 211 | 4.8 | 11.3 | 0.00 | 0.08 | 0.00 | 82 | 1006.8 |
| 20260509000004 | 13 | 225 | 6.4 | 12.9 | 0.00 | 0.08 | 0.00 | 81 | 1006.7 |
| 20260508235505 | 13 | 188 | 3.2 | 9.7 | 0.00 | 0.08 | 0.00 | 81 | 1006.7 |
| 20260508235004 | 13 | 231 | 4.8 | 12.9 | 0.00 | 0.08 | 0.00 | 81 | 1006.8 |
| 20260508234504 | 13 | 231 | 4.8 | 12.9 | 0.00 | 0.08 | 0.00 | 80 | 1006.8 |
| 20260508234004 | 13 | 201 | 6.4 | 12.9 | 0.00 | 0.08 | 0.00 | 80 | 1006.8 |
| 20260508233504 | 13 | 213 | 9.7 | 19.3 | 0.00 | 0.08 | 0.00 | 80 | 1006.8 |
| 20260508233005 | 13 | 215 | 11.3 | 22.5 | 0.00 | 0.08 | 0.00 | 80 | 1006.8 |
| 20260508232504 | 13 | 228 | 9.7 | 19.3 | 0.00 | 0.08 | 0.00 | 79 | 1006.8 |
| 20260508232005 | 13 | 190 | 9.7 | 19.3 | 0.00 | 0.08 | 0.00 | 79 | 1006.8 |
| 20260508231504 | 14 | 219 | 8.0 | 14.5 | 0.00 | 0.08 | 0.00 | 79 | 1006.8 |
| 20260508231005 | 14 | 233 | 9.7 | 19.3 | 0.00 | 0.08 | 0.00 | 79 | 1006.8 |
| 20260508230504 | 14 | 212 | 11.3 | 22.5 | 0.00 | 0.08 | 0.00 | 79 | 1006.9 |
| 20260508230005 | 14 | 225 | 8.0 | 19.3 | 0.00 | 0.08 | 0.00 | 79 | 1007.0 |
| 20260508225504 | 14 | 215 | 8.0 | 19.3 | 0.00 | 0.08 | 0.00 | 79 | 1006.9 |
| 20260508225005 | 14 | 233 | 8.0 | 16.1 | 0.00 | 0.08 | 0.00 | 79 | 1006.9 |
| 20260508224504 | 14 | 206 | 12.9 | 19.3 | 0.00 | 0.08 | 0.00 | 78 | 1006.9 |
| 20260508224004 | 14 | 233 | 8.0 | 14.5 | 0.00 | 0.08 | 0.00 | 79 | 1007.0 |
| 20260508223506 | 14 | 201 | 4.8 | 16.1 | 0.00 | 0.08 | 0.00 | 79 | 1007.0 |
| 20260508223005 | 13 | 208 | 9.7 | 19.3 | 0.00 | 0.08 | 0.00 | 78 | 1007.1 |
| 20260508222504 | 13 | 211 | 14.5 | 24.1 | 0.00 | 0.08 | 0.00 | 78 | 1007.2 |
| 20260508222005 | 13 | 197 | 8.0 | 19.3 | 0.00 | 0.08 | 0.00 | 79 | 1007.3 |
| 20260508221004 | 14 | 191 | 11.3 | 19.3 | 0.00 | 0.08 | 0.00 | 78 | 1007.3 |
| 20260508220504 | 14 | 190 | 8.0 | 19.3 | 0.00 | 0.08 | 0.00 | 78 | 1007.2 |
| 20260508220004 | 14 | 201 | 6.4 | 12.9 | 0.00 | 0.08 | 0.00 | 77 | 1007.3 |
| 20260508215504 | 14 | 211 | 8.0 | 14.5 | 0.00 | 0.08 | 0.00 | 77 | 1007.1 |
| 20260508214504 | 15 | 215 | 4.8 | 16.1 | 0.00 | 0.08 | 0.00 | 76 | 1007.1 |
| 20260508214004 | 15 | 184 | 4.8 | 14.5 | 0.00 | 0.08 | 0.00 | 76 | 1007.0 |
| 20260508213504 | 15 | 182 | 6.4 | 19.3 | 0.00 | 0.08 | 0.00 | 75 | 1007.0 |
| 20260508213004 | 15 | 179 | 6.4 | 14.5 | 0.00 | 0.08 | 0.00 | 74 | 1006.9 |
| 20260508212505 | 15 | 191 | 4.8 | 16.1 | 0.00 | 0.08 | 0.00 | 74 | 1006.9 |
| 20260508212004 | 15 | 196 | 9.7 | 16.1 | 0.00 | 0.08 | 0.00 | 72 | 1007.0 |
| 20260508211005 | 15 | 174 | 6.4 | 14.5 | 0.00 | 0.08 | 0.00 | 73 | 1007.4 |
| 20260508210505 | 15 | 180 | 3.2 | 9.7 | 0.00 | 0.08 | 0.00 | 74 | 1007.4 |
| 20260508210004 | 14 | 217 | 9.7 | 12.9 | 0.00 | 0.08 | 0.00 | 74 | 1007.4 |
| 20260508205005 | 14 | 206 | 3.2 | 11.3 | 0.00 | 0.08 | 0.00 | 75 | 1007.5 |
| 20260508204505 | 14 | 235 | 9.7 | 11.3 | 0.00 | 0.08 | 0.00 | 75 | 1007.6 |
| 20260508204005 | 14 | 238 | 8.0 | 11.3 | 0.00 | 0.08 | 0.00 | 74 | 1007.6 |
| 20260508203504 | 14 | 198 | 4.8 | 11.3 | 0.00 | 0.08 | 0.00 | 74 | 1007.6 |
| 20260508203004 | 14 | 197 | 1.6 | 8.0 | 0.00 | 0.08 | 0.00 | 75 | 1007.6 |
| 20260508202004 | 13 | 229 | 6.4 | 11.3 | 0.00 | 0.08 | 0.00 | 74 | 1007.8 |
| 20260508201504 | 14 | 209 | 8.0 | 14.5 | 0.00 | 0.08 | 0.00 | 74 | 1007.9 |
| 20260508200503 | 14 | 220 | 8.0 | 16.1 | 0.00 | 0.08 | 0.00 | 74 | 1008.0 |
| 20260508200004 | 13 | 229 | 4.8 | 12.9 | 0.00 | 0.08 | 0.00 | 76 | 1008.1 |
| 20260508195504 | 13 | 204 | 4.8 | 12.9 | 0.00 | 0.08 | 0.00 | 76 | 1008.1 |
| 20260508195004 | 13 | 188 | 4.8 | 11.3 | 0.00 | 0.08 | 0.00 | 77 | 1008.2 |
| 20260508194505 | 13 | 240 | 8.0 | 14.5 | 0.00 | 0.08 | 0.00 | 78 | 1008.4 |
| 20260508194004 | 13 | 197 | 3.2 | 9.7 | 0.00 | 0.08 | 0.00 | 79 | 1008.4 |
| 20260508193504 | 13 | 195 | 3.2 | 8.0 | 0.00 | 0.08 | 0.00 | 80 | 1008.5 |
| 20260508192504 | 12 | 229 | 3.2 | 8.0 | 0.00 | 0.08 | 0.00 | 80 | 1008.8 |
| 20260508191504 | 12 | 234 | 0.0 | 0.0 | 0.00 | 0.08 | 0.00 | 81 | 1009.0 |
| 20260508190504 | 12 | 234 | 1.6 | 9.7 | 0.00 | 0.08 | 0.00 | 82 | 1009.1 |
| 20260508190004 | 12 | 232 | 0.0 | 8.0 | 0.00 | 0.08 | 0.00 | 83 | 1009.1 |
| 20260508185504 | 12 | 228 | 3.2 | 9.7 | 0.00 | 0.08 | 0.00 | 84 | 1009.2 |
| 20260508185004 | 12 | 215 | 1.6 | 8.0 | 0.00 | 0.08 | 0.00 | 84 | 1009.1 |
| 20260508184504 | 12 | 210 | 3.2 | 11.3 | 0.00 | 0.08 | 0.00 | 84 | 1009.1 |
| 20260508183504 | 12 | 232 | 6.4 | 9.7 | 0.00 | 0.08 | 0.00 | 83 | 1009.4 |
| 20260508183004 | 12 | 192 | 1.6 | 9.7 | 0.00 | 0.08 | 0.00 | 83 | 1009.5 |
| 20260508182504 | 12 | 194 | 3.2 | 8.0 | 0.00 | 0.08 | 0.00 | 83 | 1009.6 |
| 20260508182004 | 12 | 201 | 1.6 | 8.0 | 0.00 | 0.08 | 0.00 | 83 | 1009.6 |
| 20260508181504 | 12 | 213 | 3.2 | 8.0 | 0.00 | 0.08 | 0.00 | 83 | 1009.6 |
| 20260508181004 | 12 | 213 | 4.8 | 9.7 | 0.00 | 0.08 | 0.00 | 83 | 1009.7 |
| 20260508180504 | 11 | 198 | 1.6 | 4.8 | 0.00 | 0.08 | 0.00 | 83 | 1009.7 |
| 20260508180004 | 11 | 229 | 6.4 | 12.9 | 0.00 | 0.08 | 0.00 | 82 | 1009.8 |
| 20260508175504 | 11 | 245 | 8.0 | 12.9 | 0.00 | 0.08 | 0.00 | 82 | 1010.0 |
| 20260508175004 | 12 | 234 | 9.7 | 16.1 | 0.00 | 0.08 | 0.00 | 82 | 1010.0 |
| 20260508174004 | 12 | 184 | 4.8 | 12.9 | 0.00 | 0.08 | 0.00 | 82 | 1010.2 |
| 20260508173504 | 12 | 193 | 4.8 | 11.3 | 0.00 | 0.08 | 0.00 | 82 | 1010.2 |
| 20260508173004 | 12 | 216 | 8.0 | 12.9 | 0.00 | 0.08 | 0.00 | 82 | 1010.2 |
| 20260508172004 | 12 | 210 | 8.0 | 14.5 | 0.00 | 0.08 | 0.00 | 81 | 1010.3 |
| 20260508171504 | 12 | 229 | 4.8 | 12.9 | 0.00 | 0.08 | 0.00 | 83 | 1010.3 |
| 20260508171004 | 12 | 230 | 3.2 | 16.1 | 0.00 | 0.08 | 0.00 | 83 | 1010.4 |
| 20260508170503 | 12 | 244 | 11.3 | 16.1 | 0.00 | 0.08 | 0.00 | 83 | 1010.6 |
| 20260508170004 | 12 | 231 | 9.7 | 14.5 | 0.00 | 0.08 | 0.00 | 83 | 1010.6 |
| 20260508165504 | 12 | 196 | 8.0 | 16.1 | 0.00 | 0.08 | 0.00 | 83 | 1010.6 |
| 20260508165004 | 12 | 242 | 9.7 | 16.1 | 0.00 | 0.08 | 0.00 | 82 | 1010.7 |
| 20260508164504 | 12 | 234 | 11.3 | 16.1 | 0.00 | 0.08 | 0.00 | 82 | 1010.7 |
| 20260508164004 | 12 | 267 | 9.7 | 14.5 | 0.00 | 0.08 | 0.00 | 82 | 1010.9 |
| 20260508162006 | 12 | 211 | 9.7 | 19.3 | 0.00 | 0.08 | 0.00 | 83 | 1010.9 |
| 20260508161506 | 12 | 237 | 12.9 | 19.3 | 0.00 | 0.08 | 0.00 | 83 | 1010.9 |
| 20260508161006 | 12 | 229 | 8.0 | 12.9 | 0.00 | 0.08 | 0.00 | 83 | 1010.7 |
| 20260508155506 | 12 | 198 | 8.0 | 16.1 | 0.00 | 0.08 | 0.00 | 85 | 1010.7 |
| 20260508155006 | 12 | 228 | 9.7 | 19.3 | 0.00 | 0.08 | 0.00 | 85 | 1010.7 |
| 20260508154506 | 11 | 239 | 8.0 | 16.1 | 0.00 | 0.08 | 0.00 | 86 | 1010.7 |
| 20260508154006 | 11 | 207 | 9.7 | 16.1 | 0.00 | 0.08 | 0.00 | 85 | 1010.8 |
| 20260508153506 | 11 | 223 | 8.0 | 19.3 | 0.00 | 0.08 | 0.00 | 86 | 1010.8 |
| 20260508153006 | 11 | 186 | 6.4 | 14.5 | 0.00 | 0.08 | 0.00 | 86 | 1010.8 |
| 20260508152006 | 11 | 194 | 8.0 | 16.1 | 0.00 | 0.08 | 0.00 | 87 | 1010.8 |
| 20260508151506 | 11 | 214 | 8.0 | 19.3 | 0.00 | 0.08 | 0.00 | 87 | 1010.8 |
| 20260508151006 | 10 | 187 | 3.2 | 9.7 | 0.00 | 0.08 | 0.00 | 88 | 1010.8 |
| 20260508150506 | 10 | 238 | 8.0 | 11.3 | 0.00 | 0.08 | 0.00 | 87 | 1011.1 |
| 20260508150006 | 10 | 236 | 4.8 | 11.3 | 0.00 | 0.08 | 0.00 | 88 | 1011.1 |
| 20260508145506 | 10 | 248 | 4.8 | 12.9 | 0.00 | 0.08 | 0.00 | 88 | 1011.2 |
| 20260508145007 | 10 | 230 | 8.0 | 11.3 | 0.00 | 0.08 | 0.00 | 88 | 1011.2 |
| 20260508144506 | 10 | 225 | 4.8 | 9.7 | 0.00 | 0.08 | 0.00 | 88 | 1011.4 |
| 20260508144006 | 10 | 238 | 3.2 | 11.3 | 0.00 | 0.08 | 0.00 | 87 | 1011.6 |
| 20260508143506 | 10 | 223 | 4.8 | 11.3 | 0.00 | 0.08 | 0.00 | 87 | 1011.6 |
| 20260508143007 | 10 | 230 | 8.0 | 11.3 | 0.00 | 0.08 | 0.00 | 87 | 1011.6 |
| 20260508142506 | 10 | 238 | 1.6 | 8.0 | 0.00 | 0.08 | 0.00 | 88 | 1011.6 |
| 20260508142006 | 10 | 239 | 1.6 | 9.7 | 0.00 | 0.08 | 0.00 | 88 | 1011.4 |
| 20260508141506 | 10 | 209 | 3.2 | 4.8 | 0.00 | 0.08 | 0.00 | 88 | 1011.5 |
| 20260508141006 | 10 | 238 | 0.0 | 3.2 | 0.00 | 0.08 | 0.00 | 88 | 1011.4 |
| 20260508140506 | 9 | 237 | 3.2 | 8.0 | 0.00 | 0.08 | 0.00 | 88 | 1011.6 |
| 20260508135506 | 9 | 215 | 3.2 | 4.8 | 0.00 | 0.08 | 0.00 | 88 | 1011.4 |
| 20260508135006 | 9 | 218 | 6.4 | 9.7 | 0.00 | 0.08 | 0.00 | 88 | 1011.5 |
| 20260508134506 | 9 | 246 | 3.2 | 9.7 | 0.00 | 0.08 | 0.00 | 89 | 1011.5 |
| 20260508134006 | 9 | 237 | 1.6 | 8.0 | 0.00 | 0.08 | 0.00 | 89 | 1011.6 |
| 20260508133506 | 9 | 237 | 0.0 | 0.0 | 0.00 | 0.08 | 0.00 | 89 | 1011.5 |
| 20260508133006 | 9 | 236 | 1.6 | 4.8 | 0.00 | 0.08 | 0.00 | 89 | 1011.5 |
| 20260508132505 | 9 | 231 | 3.2 | 8.0 | 0.00 | 0.08 | 0.00 | 89 | 1011.3 |
| 20260508132006 | 9 | 221 | 3.2 | 11.3 | 0.00 | 0.08 | 0.00 | 89 | 1011.3 |
| 20260508131505 | 8 | 247 | 4.8 | 8.0 | 0.00 | 0.08 | 0.00 | 89 | 1011.3 |
| 20260508131006 | 8 | 257 | 4.8 | 11.3 | 0.00 | 0.08 | 0.00 | 90 | 1011.3 |
| 20260508130506 | 8 | 240 | 3.2 | 9.7 | 0.00 | 0.08 | 0.00 | 90 | 1011.3 |
| 20260508130005 | 8 | 237 | 3.2 | 9.7 | 0.00 | 0.08 | 0.00 | 91 | 1011.3 |
| 20260508125006 | 8 | 239 | 4.8 | 8.0 | 0.00 | 0.08 | 0.00 | 91 | 1011.3 |
| 20260508124506 | 8 | 261 | 4.8 | 9.7 | 0.00 | 0.08 | 0.00 | 92 | 1011.4 |
| 20260508123506 | 8 | 244 | 3.2 | 8.0 | 0.00 | 0.08 | 0.00 | 92 | 1011.3 |
| 20260508123005 | 7 | 246 | 1.6 | 8.0 | 0.00 | 0.08 | 0.00 | 92 | 1011.3 |
| 20260508122506 | 7 | 240 | 4.8 | 4.8 | 0.00 | 0.08 | 0.00 | 92 | 1011.3 |
| 20260508122006 | 7 | 242 | 1.6 | 9.7 | 0.00 | 0.08 | 0.00 | 92 | 1011.3 |
| 20260508120505 | 7 | 226 | 0.0 | 3.2 | 0.00 | 0.08 | 0.00 | 93 | 1011.3 |
| 20260508120006 | 7 | 225 | 0.0 | 3.2 | 0.00 | 0.08 | 0.00 | 92 | 1011.3 |
| 20260508115507 | 7 | 224 | 0.0 | 0.0 | 0.00 | 0.08 | 0.00 | 92 | 1011.3 |
| 20260508114506 | 7 | 224 | 0.0 | 0.0 | 0.00 | 0.08 | 0.00 | 93 | 1011.3 |
| 20260508113507 | 6 | 224 | 0.0 | 0.0 | 0.00 | 0.08 | 0.00 | 92 | 1011.1 |
| 20260508113006 | 6 | 224 | 0.0 | 0.0 | 0.00 | 0.08 | 0.00 | 92 | 1011.0 |
| 20260508112505 | 6 | 224 | 0.0 | 0.0 | 0.00 | 0.08 | 0.00 | 92 | 1011.1 |
| 20260508112006 | 6 | 224 | 0.0 | 0.0 | 0.00 | 0.08 | 0.00 | 92 | 1010.9 |
| 20260508111006 | 6 | 227 | 1.6 | 4.8 | 0.00 | 0.08 | 0.00 | 92 | 1010.8 |
| 20260508110506 | 6 | 225 | 0.0 | 0.0 | 0.00 | 0.08 | 0.00 | 92 | 1010.8 |
| 20260508110006 | 6 | 223 | 0.0 | 0.0 | 0.00 | 0.08 | 0.00 | 92 | 1010.8 |
| 20260508105505 | 6 | 224 | 0.0 | 0.0 | 0.00 | 0.08 | 0.00 | 92 | 1010.8 |
| 20260508105006 | 6 | 226 | 0.0 | 0.0 | 0.00 | 0.08 | 0.00 | 92 | 1010.8 |
| 20260508104506 | 6 | 226 | 0.0 | 0.0 | 0.00 | 0.08 | 0.00 | 92 | 1010.8 |
| 20260508104005 | 6 | 226 | 0.0 | 0.0 | 0.00 | 0.08 | 0.00 | 92 | 1010.7 |
| 20260508103506 | 6 | 226 | 0.0 | 0.0 | 0.00 | 0.08 | 0.00 | 92 | 1010.7 |
| 20260508102506 | 6 | 226 | 0.0 | 0.0 | 0.00 | 0.08 | 0.00 | 92 | 1010.6 |
| 20260508102006 | 6 | 225 | 0.0 | 0.0 | 0.00 | 0.08 | 0.00 | 92 | 1010.5 |
| 20260508101006 | 6 | 226 | 0.0 | 3.2 | 0.00 | 0.08 | 0.00 | 92 | 1010.6 |
| 20260508100006 | 6 | 230 | 0.0 | 8.0 | 0.00 | 0.08 | 0.00 | 92 | 1010.7 |
| 20260508095006 | 5 | 228 | 0.0 | 0.0 | 0.00 | 0.08 | 0.00 | 92 | 1010.7 |
| 20260508093505 | 6 | 230 | 0.0 | 1.6 | 0.00 | 0.08 | 0.00 | 92 | 1010.7 |
| 20260508093005 | 6 | 230 | 0.0 | 1.6 | 0.00 | 0.08 | 0.00 | 92 | 1010.7 |
| 20260508092506 | 6 | 229 | 1.6 | 4.8 | 0.00 | 0.08 | 0.00 | 92 | 1010.7 |
| 20260508092005 | 6 | 229 | 0.0 | 3.2 | 0.00 | 0.08 | 0.00 | 92 | 1010.8 |
| 20260508091506 | 6 | 229 | 1.6 | 4.8 | 0.00 | 0.08 | 0.00 | 91 | 1010.8 |
| 20260508091005 | 6 | 230 | 1.6 | 8.0 | 0.00 | 0.08 | 0.00 | 91 | 1010.8 |
| 20260508090505 | 6 | 231 | 1.6 | 3.2 | 0.00 | 0.08 | 0.00 | 91 | 1010.8 |
| 20260508090005 | 6 | 231 | 0.0 | 1.6 | 0.00 | 0.08 | 0.00 | 92 | 1010.8 |
| 20260508085505 | 6 | 231 | 1.6 | 8.0 | 0.00 | 0.08 | 0.00 | 92 | 1010.8 |
| 20260508085006 | 6 | 234 | 0.0 | 4.8 | 0.00 | 0.08 | 0.00 | 92 | 1010.9 |
| 20260508084006 | 6 | 234 | 1.6 | 8.0 | 0.00 | 0.08 | 0.00 | 91 | 1010.9 |
| 20260508083505 | 6 | 211 | 0.0 | 0.0 | 0.00 | 0.08 | 0.00 | 91 | 1010.8 |
| 20260508083005 | 6 | 211 | 0.0 | 0.0 | 0.00 | 0.08 | 0.00 | 91 | 1010.8 |
| 20260508082506 | 6 | 211 | 0.0 | 0.0 | 0.00 | 0.08 | 0.00 | 92 | 1010.8 |
| 20260508081506 | 5 | 211 | 0.0 | 0.0 | 0.00 | 0.08 | 0.00 | 91 | 1010.9 |
| 20260508081005 | 5 | 211 | 0.0 | 0.0 | 0.00 | 0.08 | 0.00 | 91 | 1010.9 |
| 20260508080506 | 5 | 211 | 0.0 | 0.0 | 0.00 | 0.08 | 0.00 | 91 | 1010.9 |
| 20260508080005 | 5 | 211 | 0.0 | 0.0 | 0.00 | 0.08 | 0.00 | 91 | 1010.9 |
| 20260508075006 | 5 | 211 | 0.0 | 0.0 | 0.00 | 0.08 | 0.00 | 90 | 1010.9 |
| 20260508074505 | 5 | 211 | 0.0 | 0.0 | 0.00 | 0.08 | 0.00 | 90 | 1010.9 |
| 20260508074006 | 5 | 211 | 0.0 | 0.0 | 0.00 | 0.08 | 0.00 | 90 | 1010.9 |
| 20260508073505 | 5 | 211 | 0.0 | 0.0 | 0.00 | 0.08 | 0.00 | 90 | 1010.9 |
| 20260508073005 | 6 | 211 | 0.0 | 0.0 | 0.00 | 0.08 | 0.00 | 90 | 1010.9 |
| 20260508072505 | 6 | 211 | 0.0 | 0.0 | 0.00 | 0.08 | 0.00 | 90 | 1010.8 |
| 20260508072005 | 6 | 211 | 0.0 | 0.0 | 0.00 | 0.08 | 0.00 | 90 | 1010.8 |
| 20260508071506 | 6 | 211 | 0.0 | 0.0 | 0.00 | 0.08 | 0.00 | 90 | 1010.9 |
| 20260508071005 | 6 | 211 | 0.0 | 0.0 | 0.00 | 0.08 | 0.00 | 90 | 1010.9 |
| 20260508070005 | 6 | 211 | 0.0 | 0.0 | 0.00 | 0.08 | 0.00 | 90 | 1010.9 |
| 20260508065505 | 6 | 211 | 0.0 | 0.0 | 0.00 | 0.08 | 0.00 | 90 | 1010.9 |
| 20260508065006 | 6 | 211 | 0.0 | 0.0 | 0.00 | 0.08 | 0.00 | 90 | 1010.9 |
| 20260508064505 | 6 | 211 | 0.0 | 0.0 | 0.00 | 0.08 | 0.00 | 90 | 1010.9 |
| 20260508064006 | 6 | 211 | 0.0 | 0.0 | 0.00 | 0.08 | 0.00 | 90 | 1011.0 |
| 20260508063505 | 6 | 211 | 0.0 | 0.0 | 0.00 | 0.08 | 0.00 | 90 | 1011.1 |
| 20260508062505 | 6 | 211 | 0.0 | 1.6 | 0.00 | 0.08 | 0.00 | 90 | 1011.2 |
| 20260508062005 | 6 | 211 | 0.0 | 3.2 | 0.00 | 0.08 | 0.00 | 90 | 1011.2 |
| 20260508061506 | 6 | 211 | 0.0 | 0.0 | 0.00 | 0.08 | 0.00 | 90 | 1011.3 |
| 20260508060505 | 6 | 211 | 0.0 | 0.0 | 0.00 | 0.08 | 0.00 | 90 | 1011.3 |
| 20260508055505 | 6 | 211 | 0.0 | 4.8 | 0.00 | 0.08 | 0.00 | 90 | 1011.4 |
| 20260508055005 | 6 | 211 | 0.0 | 1.6 | 0.00 | 0.08 | 0.00 | 90 | 1011.4 |
| 20260508054505 | 7 | 212 | 0.0 | 3.2 | 0.00 | 0.08 | 0.00 | 90 | 1011.4 |
| 20260508054005 | 7 | 212 | 1.6 | 9.7 | 0.00 | 0.08 | 0.00 | 89 | 1011.4 |
| 20260508053505 | 7 | 190 | 1.6 | 4.8 | 0.00 | 0.08 | 0.00 | 89 | 1011.4 |
| 20260508053005 | 7 | 191 | 0.0 | 1.6 | 0.00 | 0.08 | 0.00 | 90 | 1011.4 |
| 20260508052505 | 7 | 192 | 3.2 | 8.0 | 0.00 | 0.08 | 0.00 | 90 | 1011.4 |
| 20260508051505 | 7 | 195 | 0.0 | 3.2 | 0.00 | 0.08 | 0.00 | 89 | 1011.4 |
| 20260508051005 | 7 | 196 | 1.6 | 4.8 | 0.00 | 0.08 | 0.00 | 89 | 1011.4 |
| 20260508050505 | 7 | 169 | 0.0 | 3.2 | 0.00 | 0.08 | 0.00 | 89 | 1011.4 |
| 20260508050005 | 7 | 168 | 1.6 | 3.2 | 0.00 | 0.08 | 0.00 | 89 | 1011.5 |
| 20260508045505 | 7 | 196 | 0.0 | 1.6 | 0.00 | 0.08 | 0.00 | 89 | 1011.5 |
| 20260508045005 | 7 | 196 | 0.0 | 3.2 | 0.00 | 0.08 | 0.00 | 89 | 1011.5 |
| 20260508044505 | 7 | 196 | 1.6 | 3.2 | 0.00 | 0.08 | 0.00 | 89 | 1011.5 |
| 20260508044005 | 7 | 197 | 0.0 | 1.6 | 0.00 | 0.08 | 0.00 | 89 | 1011.4 |
| 20260508043505 | 7 | 197 | 0.0 | 3.2 | 0.00 | 0.08 | 0.00 | 89 | 1011.5 |
| 20260508042505 | 7 | 199 | 1.6 | 4.8 | 0.00 | 0.08 | 0.00 | 88 | 1011.4 |
| 20260508042005 | 7 | 207 | 0.0 | 1.6 | 0.00 | 0.08 | 0.00 | 88 | 1011.4 |
| 20260508041505 | 7 | 207 | 0.0 | 3.2 | 0.00 | 0.08 | 0.00 | 88 | 1011.4 |
| 20260508041005 | 7 | 207 | 0.0 | 3.2 | 0.00 | 0.08 | 0.00 | 88 | 1011.4 |
| 20260508040005 | 7 | 207 | 1.6 | 4.8 | 0.00 | 0.08 | 0.00 | 88 | 1011.5 |
| 20260508035505 | 7 | 215 | 0.0 | 3.2 | 0.00 | 0.08 | 0.08 | 88 | 1011.4 |
| 20260508035005 | 7 | 220 | 0.0 | 3.2 | 0.00 | 0.08 | 0.08 | 88 | 1011.5 |
| 20260508034505 | 7 | 222 | 1.6 | 8.0 | 0.00 | 0.08 | 0.08 | 88 | 1011.6 |
| 20260508034005 | 7 | 202 | 0.0 | 8.0 | 0.00 | 0.08 | 0.08 | 87 | 1011.6 |
| 20260508033505 | 7 | 200 | 3.2 | 8.0 | 0.00 | 0.08 | 0.08 | 87 | 1011.8 |
| 20260508033005 | 7 | 198 | 0.0 | 1.6 | 0.00 | 0.08 | 0.08 | 86 | 1011.7 |